This demonstration page uses our WeatherBlox Daily Observations layout. Learn more.

38.89511, -77.03637

Hourly Observations for December 29, 2016

Temp ( °F °C ) Dew Point ( °F °C ) Humidity (%) Winds ( mph kmh ) Pressure ( in mb ) Visibility ( mi km ) Precip ( " mm )
12:52 am 00:52 Partly Cloudy 38 3.3 32 0 79 79 SSE 8 13 30.04 1017 10 16.0934 0 0
1:52 am 01:52 Cloudy 39 3.9 35 1.7 86 86 SSE 7 11 30.02 1017 10 16.0934 0 0
2:52 am 02:52 Cloudy 40 4.4 35 1.7 83 83 SSW 6 9 30 1016 10 16.0934 0 0
3:52 am 03:52 Cloudy with Light Rain 39 3.9 36 2.2 89 89 SSW 7 11 29.96 1015 10 16.0934 0 0.0254
4:20 am 04:20 Cloudy with Light Rain 39 4 36 2 87 87 SSE 8 13 29.94 1014 8 12.87472 0 0
4:52 am 04:52 Cloudy with Light Rain 39 3.9 37 2.8 93 93 S 8 13 29.91 1013 10 16.0934 0.02 0.508
5:41 am 05:41 Cloudy with Light Rain 39 3.9 38 3.3 96 96 S 5 7 29.91 1013 6 9.65604 0.05 1.27
5:52 am 05:52 Cloudy with Light Rain 39 3.9 38 3.3 96 96 S 7 11 29.89 1012 7 11.26538 0.07 1.778
6:52 am 06:52 Cloudy with Light Rain 40 4.4 39 3.9 97 97 SSW 8 13 29.84 1011 5 8.0467 0.09 2.286
7:04 am 07:04 Cloudy with Light Rain 41 5 39 4 93 93 SSW 9 15 29.85 1011 6 9.65604 0 0
7:52 am 07:52 Cloudy with Light Rain 41 5 40 4.4 96 96 S 7 11 29.82 1010 7 11.26538 0.01 0.254
8:04 am 08:04 Cloudy with Light Rain 41 5 39 4 93 93 SSW 7 11 29.83 1010 5 8.0467 0 0
8:19 am 08:19 Cloudy with Light Rain 42 5.6 41 5 96 96 S 6 9 29.8 1009 5 8.0467 0.02 0.508
8:52 am 08:52 Cloudy with Light Rain 43 6.1 41 5 93 93 S 9 15 29.79 1009 7 11.26538 0.04 1.016
9:52 am 09:52 Cloudy 43 6.1 42 5.6 97 97 SSW 10 17 29.77 1008 10 16.0934 0.01 0.254
10:10 am 10:10 Cloudy 43 6 43 6 100 100 S 13 20 29.74 1007 10 16.0934 0 0
10:23 am 10:23 Cloudy 44 6.7 42 5.6 93 93 SSW 10 17 29.77 1008 10 16.0934 0 0
10:52 am 10:52 Cloudy 44 6.7 42 5.6 93 93 SW 9 15 29.75 1008 10 16.0934 0 0
11:52 am 11:52 Cloudy 45 7.2 43 6.1 93 93 SW 9 15 29.68 1005 10 16.0934 0 0
12:52 pm 12:52 Cloudy 46 7.8 43 6.1 89 89 W 7 11 29.66 1005 10 16.0934 0 0
1:19 pm 13:19 Cloudy 46 7.8 41 5 83 83 NW 14 22 29.65 1004 10 16.0934 0 0
1:22 pm 13:22 Cloudy 46 8 41 5 82 82 NW 9 15 29.65 1004 10 16.0934 0 0
1:52 pm 13:52 Mostly Cloudy with Light Rain 46 7.8 40 4.4 79 79 VRB 5 7 29.65 1004 10 16.0934 0 0.0254
2:36 pm 14:36 Partly Cloudy 48 9 41 5 76 76 W 6 9 29.65 1004 10 16.0934 0 0
2:52 pm 14:52 Partly Cloudy 48 8.9 39 3.9 71 71 WSW 3 6 29.64 1004 10 16.0934 0 0.0254
3:52 pm 15:52 Partly Cloudy 46 7.8 41 5 83 83 WSW 9 15 29.65 1004 10 16.0934 0 0
4:08 pm 16:08 Partly Cloudy 52 11 28 -2 41 41 WNW 15 24 29.65 1004 10 16.0934 0 0
4:52 pm 16:52 Partly Cloudy 49 9.4 26 -3.3 41 41 W 13 20 29.69 1005 10 16.0934 0 0
5:52 pm 17:52 Mostly Clear 47 8.3 25 -3.9 42 42 WNW 15 24 29.73 1007 10 16.0934 0 0
6:52 pm 18:52 Clear 45 7.2 25 -3.9 46 46 WNW 14 22 29.75 1007 10 16.0934 0 0
7:52 pm 19:52 Clear 43 6.1 26 -3.3 51 51 WNW 7 11 29.76 1008 10 16.0934 0 0
8:52 pm 20:52 Clear 41 5 27 -2.8 57 57 SW 5 7 29.76 1008 10 16.0934 0 0
9:52 pm 21:52 Clear 40 4.4 26 -3.3 58 58 SSW 6 9 29.76 1008 10 16.0934 0 0
10:52 pm 22:52 Clear 36 2.2 27 -2.8 70 70 SSW 7 11 29.75 1007 10 16.0934 0 0
11:52 pm 23:52 Clear 37 2.8 27 -2.8 67 67 SSW 6 9 29.73 1007 10 16.0934 0 0

Powered by AerisWeather